Location: Sevilla
(37.3933°N, 5.9839°W)
Time: 12:42:50
(UTC+02:00)

S-56A Canister/Altair - Pass Details

Date: 01 July 2024
Orbit: 638 x 2488 km, 38.9° (Epoch: 14 July)

Event Time Altitude Azimuth Distance (km) Brightness Sun altitude
Rises 03:03:44 0° 286° (WNW) 4,821 11.7 -28.9°
Reaches altitude 10° 03:06:49 10° 279° (W) 4,070 11.2 -28.8°
Enters shadow 03:16:40 40° 219° (SW) 2,902 9.9 -28.4°
